Location: Chenereilles
(45.4866°N, 4.0790°E)
Time: 01:40:30
(UTC+00:00)

FengYun 1-2 T - Pass Details

Date: 12 November 2019
Orbit: 846 x 881 km, 98.7° (Epoch: 13 December)

Event Time Altitude Azimuth Distance (km) Brightness Sun altitude
Rises 17:27:26 0° 152° (SSE) 3,428 7.2 -12.5°
Reaches altitude 10° 17:29:50 10° 148° (SSE) 2,490 6.5 -12.9°
Maximum altitude 17:35:15 59° 71° (ENE) 984 4.2 -13.8°
Drops below altitude 10° 17:40:40 10° 353° (N) 2,487 6.6 -14.8°
Sets 17:43:04 0° 350° (N) 3,424 7.4 -15.2°
